sat.trackr.live / text

‹ back to catalog

STARLINK-2603

NORAD 48375 · 2021-038Y

PAYLOAD ACTIVE UNKNOWN

§ Identity

Operator
Country
US
Launch date
2021-05-04
Launch site
AFETR
Launch vehicle
Mass (kg)
RCS (m²)

Purposes: comms

External: N2YO · Heavens-Above · Gunter

§ Orbital elements

Epoch: 2026-09-10T04:27:50.270400Z

Period
94.01 min
Inclination
53.1590°
Eccentricity
0.0001193
Mean motion
15.31789984 rev/d
Perigee alt
469.7 km
Apogee alt
471.3 km
Semi-major
6,848.6 km
B*
1.2455e-4
RAAN
209.2057°
Arg perigee
91.1615°
Mean anomaly
268.9523°
Rev number
29,549

§ Raw data

STARLINK-26031 48375U 21038Y   26253.18599850  .00003512  00000+0  12455-3 0  99942 48375  53.1590 209.2057 0001193  91.1615 268.9523 15.31789984295493

JSON: /api/v1/satellites/48375 · /tle

For live sub-satellite position, see the globe view (requires WebGL).

§ Visibility from observer

Set your observer location to see the next 7 days of passes ≥ 10°. The values pass through the URL so the page stays shareable.

No JS? Fill the form by hand. The geolocation button needs JavaScript.